TimeCEST,TemperatureF,Dew PointF,Humidity,Sea Level PressureIn,VisibilityMPH,Wind Direction,Wind SpeedMPH,Gust SpeedMPH,PrecipitationIn,Events,Conditions,WindDirDegrees,DateUTC
12:00 AM,46.4,39.2,76,29.92,-9999.0,ENE,6.9,-,N/A,,Clear,70,2012-10-10 22:00:00
12:30 AM,44.6,37.4,76,29.92,-9999.0,ENE,6.9,-,N/A,,Clear,70,2012-10-10 22:30:00
1:00 AM,44.6,39.2,81,29.92,-9999.0,ENE,5.8,-,N/A,,Clear,60,2012-10-10 23:00:00
2:00 AM,42,38,79,29.92,7,East,4.6,,,,,90,2012-10-11 00:00:00
2:00 AM,42.8,37.4,81,29.92,-9999.0,East,4.6,-,N/A,,Clear,90,2012-10-11 00:00:00
2:30 AM,41.0,37.4,87,29.89,6.2,East,4.6,-,N/A,,Unknown,90,2012-10-11 00:30:00
3:00 AM,41.0,37.4,87,29.89,6.2,East,3.5,-,N/A,,Unknown,100,2012-10-11 01:00:00
3:30 AM,42.8,39.2,87,29.89,6.2,East,3.5,-,N/A,,Mostly Cloudy,100,2012-10-11 01:30:00
4:00 AM,42.8,39.2,87,29.86,6.2,East,3.5,-,N/A,,Overcast,100,2012-10-11 02:00:00
4:30 AM,42.8,39.2,87,29.86,5.6,ESE,2.3,-,N/A,,Overcast,110,2012-10-11 02:30:00
5:00 AM,42.8,41.0,93,29.86,4.3,East,3.5,-,N/A,,Overcast,100,2012-10-11 03:00:00
5:30 AM,42.8,41.0,93,29.83,4.3,ESE,4.6,-,N/A,,Mostly Cloudy,120,2012-10-11 03:30:00
6:00 AM,42.8,41.0,93,29.83,4.3,ESE,5.8,-,N/A,,Mostly Cloudy,120,2012-10-11 04:00:00
6:30 AM,42.8,41.0,93,29.83,4.3,East,3.5,-,N/A,,Scattered Clouds,90,2012-10-11 04:30:00
7:00 AM,42.8,41.0,93,29.83,4.3,Variable,2.3,-,N/A,,Mostly Cloudy,0,2012-10-11 05:00:00
7:30 AM,44.6,42.8,93,29.80,4.3,ESE,4.6,-,N/A,,Mostly Cloudy,120,2012-10-11 05:30:00
8:00 AM,44,42,88,29.83,4,ESE,6.9,,,,Partly Cloudy,110,2012-10-11 06:00:00
8:00 AM,44.6,41.0,87,29.80,4.3,ESE,6.9,-,N/A,,Scattered Clouds,110,2012-10-11 06:00:00
8:30 AM,44.6,41.0,87,29.80,4.3,ESE,5.8,-,N/A,,Mostly Cloudy,120,2012-10-11 06:30:00
9:00 AM,46.4,42.8,87,29.80,5.0,SE,5.8,-,N/A,,Mostly Cloudy,130,2012-10-11 07:00:00
9:30 AM,46.4,44.6,93,29.80,5.0,SE,6.9,-,N/A,,Mostly Cloudy,130,2012-10-11 07:30:00
10:00 AM,50.0,46.4,87,29.80,5.0,SE,5.8,-,N/A,,Mostly Cloudy,130,2012-10-11 08:00:00
10:30 AM,50.0,46.4,87,29.80,5.0,SE,8.1,-,N/A,,Mostly Cloudy,130,2012-10-11 08:30:00
11:00 AM,53.6,46.4,77,29.80,5.0,SSE,10.4,-,N/A,,Mostly Cloudy,150,2012-10-11 09:00:00
11:30 AM,55.4,46.4,72,29.77,5.0,SE,9.2,-,N/A,,Mostly Cloudy,140,2012-10-11 09:30:00
12:00 PM,57.2,48.2,72,29.77,5.6,SE,8.1,-,N/A,,Mostly Cloudy,130,2012-10-11 10:00:00
12:30 PM,57.2,50.0,77,29.74,5.6,SE,8.1,-,N/A,,Mostly Cloudy,140,2012-10-11 10:30:00
1:00 PM,59.0,51.8,77,29.74,6.2,SSE,11.5,-,N/A,,Mostly Cloudy,150,2012-10-11 11:00:00
1:30 PM,60.8,51.8,72,29.74,6.2,SSE,9.2,-,N/A,,Mostly Cloudy,150,2012-10-11 11:30:00
2:00 PM,60,52,67,29.73,6,SSE,11.5,,,,Mostly Cloudy,150,2012-10-11 12:00:00
2:00 PM,60.8,51.8,72,29.71,6.2,SSE,11.5,-,N/A,,Mostly Cloudy,160,2012-10-11 12:00:00
2:30 PM,59.0,51.8,77,29.71,6.2,SSE,11.5,-,N/A,,Mostly Cloudy,160,2012-10-11 12:30:00
3:00 PM,59.0,51.8,77,29.68,6.2,SE,11.5,-,N/A,,Mostly Cloudy,140,2012-10-11 13:00:00
3:30 PM,59.0,53.6,82,29.68,6.2,SSE,6.9,-,N/A,,Mostly Cloudy,150,2012-10-11 13:30:00
4:00 PM,59.0,53.6,82,29.68,6.2,SE,9.2,-,N/A,,Mostly Cloudy,140,2012-10-11 14:00:00
4:30 PM,59.0,55.4,88,29.68,6.2,SSE,5.8,-,N/A,,Overcast,150,2012-10-11 14:30:00
4:43 PM,59.0,55.4,88,29.68,4.3,South,8.1,-,N/A,Rain,Light Rain,180,2012-10-11 14:43:00
5:00 PM,59.0,55.4,88,29.65,6.2,South,8.1,-,N/A,,Overcast,180,2012-10-11 15:00:00
5:30 PM,59.0,55.4,88,29.65,6.2,SSE,9.2,-,N/A,,Overcast,160,2012-10-11 15:30:00
6:00 PM,57.2,55.4,94,29.65,6.2,SSE,9.2,-,N/A,,Overcast,150,2012-10-11 16:00:00
6:30 PM,57.2,55.4,94,29.65,5.6,SSE,8.1,-,N/A,,Overcast,160,2012-10-11 16:30:00
7:00 PM,57.2,55.4,94,29.62,1.9,SSE,6.9,-,N/A,Rain,Light Rain,150,2012-10-11 17:00:00
7:30 PM,57.2,55.4,94,29.62,2.5,SSE,5.8,-,N/A,Rain,Light Rain,150,2012-10-11 17:30:00
8:00 PM,56,55,95,29.64,4,SE,8.1,,,,Clear,140,2012-10-11 18:00:00
8:00 PM,57.2,55.4,94,29.62,3.7,SE,8.1,-,N/A,,Overcast,140,2012-10-11 18:00:00
8:30 PM,57.2,55.4,94,29.62,3.7,SE,6.9,-,N/A,Rain,Light Rain,140,2012-10-11 18:30:00
9:00 PM,57.2,55.4,94,29.62,4.3,SSE,8.1,-,N/A,,Mostly Cloudy,150,2012-10-11 19:00:00
9:30 PM,57.2,55.4,94,29.62,6.2,SE,8.1,-,N/A,,Mostly Cloudy,140,2012-10-11 19:30:00
10:00 PM,57.2,55.4,94,29.62,6.2,SSE,6.9,-,N/A,,Mostly Cloudy,150,2012-10-11 20:00:00
10:30 PM,57.2,55.4,94,29.62,6.2,SSE,8.1,-,N/A,,Mostly Cloudy,160,2012-10-11 20:30:00
11:00 PM,57.2,55.4,94,29.62,6.2,SSE,10.4,-,N/A,,Mostly Cloudy,160,2012-10-11 21:00:00
11:30 PM,57.2,55.4,94,29.59,6.2,SSE,8.1,-,N/A,,Mostly Cloudy,160,2012-10-11 21:30:00